Time,TemperatureF,DewpointF,PressureIn,WindDirection,WindDirectionDegrees,WindSpeedMPH,WindSpeedGustMPH,Humidity,HourlyPrecipIn,Conditions,Clouds,dailyrainin,SoftwareType,DateUTC
2013-07-04 00:00:00,76.7,72.9,30.06,SW,223,0.0,0.0,88,0.00,,---,0.00,VWS V14.01,2013-07-04 04:00:00,
2013-07-04 00:01:00,76.7,72.9,30.06,SW,223,0.0,0.0,88,0.00,,---,0.00,VWS V14.01,2013-07-04 04:01:00,
2013-07-04 00:06:00,76.7,72.9,30.06,SE,144,0.0,0.0,88,0.00,,---,0.00,VWS V14.01,2013-07-04 04:06:00,
2013-07-04 00:11:00,76.8,73.0,30.06,SW,224,0.0,1.0,88,0.00,,---,0.00,VWS V14.01,2013-07-04 04:11:00,
2013-07-04 00:16:00,76.8,73.0,30.06,SE,126,0.0,1.0,88,0.00,,---,0.00,VWS V14.01,2013-07-04 04:16:00,
2013-07-04 00:21:00,76.8,73.0,30.06,SE,128,0.0,5.0,88,0.00,,---,0.00,VWS V14.01,2013-07-04 04:21:00,
2013-07-04 00:26:00,76.7,72.9,30.06,SE,131,0.0,5.0,88,0.00,,---,0.00,VWS V14.01,2013-07-04 04:26:00,
2013-07-04 00:30:00,76.7,72.9,30.06,ESE,120,0.0,5.0,88,0.00,,---,0.00,VWS V14.01,2013-07-04 04:30:00,
2013-07-04 00:31:00,76.7,72.9,30.06,ESE,120,0.0,0.0,88,0.00,,---,0.00,VWS V14.01,2013-07-04 04:31:00,
2013-07-04 00:36:00,76.7,72.9,30.06,SE,128,0.0,0.0,88,0.00,,---,0.00,VWS V14.01,2013-07-04 04:36:00,
2013-07-04 00:41:00,76.5,72.7,30.06,ESE,123,0.0,0.0,88,0.00,,---,0.00,VWS V14.01,2013-07-04 04:41:00,
2013-07-04 00:46:00,76.5,72.7,30.06,South,169,0.0,0.0,88,0.00,,---,0.00,VWS V14.01,2013-07-04 04:46:00,
2013-07-04 00:51:00,76.5,72.7,30.06,South,184,0.0,1.0,88,0.00,,---,0.00,VWS V14.01,2013-07-04 04:51:00,
2013-07-04 00:56:00,76.5,72.7,30.06,ESE,123,0.0,1.0,88,0.00,,---,0.00,VWS V14.01,2013-07-04 04:56:00,
2013-07-04 01:00:00,76.5,72.7,30.06,South,169,0.0,1.0,88,0.00,,---,0.00,VWS V14.01,2013-07-04 05:00:00,
2013-07-04 01:01:00,76.5,72.7,30.06,SSE,147,0.0,0.0,88,0.00,,---,0.00,VWS V14.01,2013-07-04 05:01:00,
2013-07-04 01:06:00,76.5,73.0,30.06,SSE,167,0.0,0.0,89,0.00,,---,0.00,VWS V14.01,2013-07-04 05:06:00,
2013-07-04 01:11:00,76.5,73.0,30.06,SSE,157,0.0,0.0,89,0.00,,---,0.00,VWS V14.01,2013-07-04 05:11:00,
2013-07-04 01:16:00,76.3,72.8,30.06,SSE,150,0.0,0.0,89,0.00,,---,0.00,VWS V14.01,2013-07-04 05:16:00,
2013-07-04 01:21:00,76.3,72.8,30.06,SSE,150,0.0,0.0,89,0.00,,---,0.00,VWS V14.01,2013-07-04 05:21:00,
2013-07-04 01:26:00,76.3,73.2,30.06,SSE,150,0.0,0.0,90,0.00,,---,0.00,VWS V14.01,2013-07-04 05:26:00,
2013-07-04 01:30:00,76.1,73.0,30.05,SSE,150,0.0,0.0,90,0.00,,---,0.00,VWS V14.01,2013-07-04 05:30:00,
2013-07-04 01:31:00,76.1,73.0,30.05,SSE,147,0.0,0.0,90,0.00,,---,0.00,VWS V14.01,2013-07-04 05:31:00,
2013-07-04 01:36:00,76.1,73.0,30.05,SE,136,0.0,1.0,90,0.00,,---,0.00,VWS V14.01,2013-07-04 05:36:00,
2013-07-04 01:41:00,76.0,72.9,30.05,SSE,158,0.0,1.0,90,0.00,,---,0.00,VWS V14.01,2013-07-04 05:41:00,
2013-07-04 01:46:00,76.0,72.9,30.05,SSE,158,0.0,1.0,90,0.00,,---,0.00,VWS V14.01,2013-07-04 05:46:00,
2013-07-04 01:51:00,76.0,72.9,30.05,WSW,240,0.0,1.0,90,0.00,,---,0.00,VWS V14.01,2013-07-04 05:51:00,
2013-07-04 01:56:00,76.0,72.9,30.05,South,189,0.0,1.0,90,0.00,,---,0.00,VWS V14.01,2013-07-04 05:56:00,
2013-07-04 02:00:00,76.0,72.9,30.05,SSE,158,0.0,6.0,90,0.00,,---,0.00,VWS V14.01,2013-07-04 06:00:00,
2013-07-04 02:01:00,76.0,72.5,30.05,SSE,167,0.0,0.0,89,0.00,,---,0.00,VWS V14.01,2013-07-04 06:01:00,
2013-07-04 02:06:00,76.0,72.5,30.05,South,189,0.0,0.0,89,0.00,,---,0.00,VWS V14.01,2013-07-04 06:06:00,
2013-07-04 02:11:00,76.0,72.5,30.05,South,172,0.0,0.0,89,0.00,,---,0.00,VWS V14.01,2013-07-04 06:11:00,
2013-07-04 02:16:00,76.0,72.5,30.05,SSE,165,0.0,0.0,89,0.00,,---,0.00,VWS V14.01,2013-07-04 06:16:00,
2013-07-04 02:21:00,76.0,72.5,30.05,South,169,0.0,0.0,89,0.00,,---,0.00,VWS V14.01,2013-07-04 06:21:00,
2013-07-04 02:26:00,76.0,72.5,30.05,SSE,168,0.0,0.0,89,0.00,,---,0.00,VWS V14.01,2013-07-04 06:26:00,
2013-07-04 02:30:00,76.0,72.5,30.04,SSE,158,0.0,0.0,89,0.00,,---,0.00,VWS V14.01,2013-07-04 06:30:00,
2013-07-04 02:31:00,75.8,72.3,30.04,SSE,168,0.0,0.0,89,0.00,,---,0.00,VWS V14.01,2013-07-04 06:31:00,
2013-07-04 02:36:00,75.8,72.3,30.04,SSE,168,0.0,0.0,89,0.00,,---,0.00,VWS V14.01,2013-07-04 06:36:00,
2013-07-04 02:41:00,75.8,72.3,30.04,SSE,168,0.0,0.0,89,0.00,,---,0.00,VWS V14.01,2013-07-04 06:41:00,
2013-07-04 02:46:00,75.8,72.3,30.04,SSE,168,0.0,0.0,89,0.00,,---,0.00,VWS V14.01,2013-07-04 06:46:00,
2013-07-04 02:51:00,75.6,72.1,30.04,SSE,168,0.0,0.0,89,0.00,,---,0.00,VWS V14.01,2013-07-04 06:51:00,
2013-07-04 02:56:00,75.6,72.1,30.04,SSE,167,0.0,0.0,89,0.00,,---,0.00,VWS V14.01,2013-07-04 06:56:00,
2013-07-04 03:00:00,75.7,72.2,30.04,SSE,158,0.0,0.0,89,0.00,,---,0.00,VWS V14.01,2013-07-04 07:00:00,
2013-07-04 03:01:00,75.6,72.1,30.04,SSE,165,0.0,0.0,89,0.00,,---,0.00,VWS V14.01,2013-07-04 07:01:00,
2013-07-04 03:06:00,75.6,72.1,30.04,SSE,161,0.0,0.0,89,0.00,,---,0.00,VWS V14.01,2013-07-04 07:06:00,
2013-07-04 03:11:00,75.6,72.5,30.04,SSE,157,0.0,0.0,90,0.00,,---,0.00,VWS V14.01,2013-07-04 07:11:00,
2013-07-04 03:16:00,75.6,72.5,30.03,SSE,157,0.0,0.0,90,0.00,,---,0.00,VWS V14.01,2013-07-04 07:16:00,
2013-07-04 03:21:00,75.4,72.3,30.03,SSE,157,0.0,0.0,90,0.00,,---,0.00,VWS V14.01,2013-07-04 07:21:00,
2013-07-04 03:26:00,75.4,72.3,30.03,SSE,157,0.0,0.0,90,0.00,,---,0.00,VWS V14.01,2013-07-04 07:26:00,
2013-07-04 03:30:00,75.5,72.4,30.03,SSE,158,0.0,0.0,90,0.00,,---,0.00,VWS V14.01,2013-07-04 07:30:00,
2013-07-04 03:31:00,75.3,72.2,30.03,SSE,157,0.0,0.0,90,0.00,,---,0.00,VWS V14.01,2013-07-04 07:31:00,
2013-07-04 03:36:00,75.3,72.2,30.03,SE,133,0.0,2.0,90,0.00,,---,0.00,VWS V14.01,2013-07-04 07:36:00,
2013-07-04 03:41:00,75.1,72.3,30.03,SE,133,0.0,2.0,91,0.00,,---,0.00,VWS V14.01,2013-07-04 07:41:00,
2013-07-04 03:46:00,75.1,72.3,30.03,SE,133,0.0,2.0,91,0.00,,---,0.00,VWS V14.01,2013-07-04 07:46:00,
2013-07-04 03:51:00,75.1,72.6,30.03,SE,133,0.0,2.0,92,0.00,,---,0.00,VWS V14.01,2013-07-04 07:51:00,
2013-07-04 03:56:00,75.1,72.6,30.03,SE,133,0.0,2.0,92,0.00,,---,0.00,VWS V14.01,2013-07-04 07:56:00,
2013-07-04 04:00:00,75.1,72.6,30.03,SE,135,0.0,2.0,92,0.00,,---,0.00,VWS V14.01,2013-07-04 08:00:00,
2013-07-04 04:01:00,74.9,72.4,30.03,SE,133,0.0,0.0,92,0.00,,---,0.00,VWS V14.01,2013-07-04 08:01:00,
2013-07-04 04:06:00,74.9,72.4,30.03,SE,133,0.0,0.0,92,0.00,,---,0.00,VWS V14.01,2013-07-04 08:06:00,
2013-07-04 04:11:00,74.7,72.6,30.03,SE,133,0.0,0.0,93,0.00,,---,0.00,VWS V14.01,2013-07-04 08:11:00,
2013-07-04 04:16:00,74.7,72.6,30.03,SE,128,0.0,0.0,93,0.00,,---,0.00,VWS V14.01,2013-07-04 08:16:00,
2013-07-04 04:21:00,74.7,72.9,30.03,SE,128,0.0,0.0,94,0.00,,---,0.00,VWS V14.01,2013-07-04 08:21:00,
2013-07-04 04:26:00,74.7,72.9,30.03,SE,128,0.0,0.0,94,0.00,,---,0.00,VWS V14.01,2013-07-04 08:26:00,
2013-07-04 04:30:00,74.7,72.9,30.03,SE,135,0.0,0.0,94,0.00,,---,0.00,VWS V14.01,2013-07-04 08:30:00,
2013-07-04 04:31:00,74.7,72.9,30.03,SE,128,0.0,0.0,94,0.00,,---,0.00,VWS V14.01,2013-07-04 08:31:00,
2013-07-04 04:36:00,74.6,72.8,30.03,SE,128,0.0,0.0,94,0.00,,---,0.00,VWS V14.01,2013-07-04 08:36:00,
2013-07-04 04:41:00,74.6,72.8,30.03,SE,128,0.0,0.0,94,0.00,,---,0.00,VWS V14.01,2013-07-04 08:41:00,
2013-07-04 04:46:00,74.6,72.8,30.04,SE,128,0.0,0.0,94,0.00,,---,0.00,VWS V14.01,2013-07-04 08:46:00,
2013-07-04 04:51:00,74.6,72.8,30.04,SE,128,0.0,0.0,94,0.00,,---,0.00,VWS V14.01,2013-07-04 08:51:00,
2013-07-04 04:56:00,74.6,73.1,30.04,ESE,119,0.0,0.0,95,0.00,,---,0.00,VWS V14.01,2013-07-04 08:56:00,
2013-07-04 05:00:00,74.6,73.1,30.03,SE,135,0.0,0.0,95,0.00,,---,0.00,VWS V14.01,2013-07-04 09:00:00,
2013-07-04 05:01:00,74.6,73.1,30.03,ESE,120,0.0,0.0,95,0.00,,---,0.00,VWS V14.01,2013-07-04 09:01:00,
2013-07-04 05:06:00,74.6,73.1,30.03,ESE,120,0.0,0.0,95,0.00,,---,0.00,VWS V14.01,2013-07-04 09:06:00,
2013-07-04 05:11:00,74.6,73.1,30.03,ESE,120,0.0,0.0,95,0.00,,---,0.00,VWS V14.01,2013-07-04 09:11:00,
2013-07-04 05:16:00,74.6,73.1,30.03,South,171,0.0,0.0,95,0.00,,---,0.00,VWS V14.01,2013-07-04 09:16:00,
2013-07-04 05:21:00,74.6,73.1,30.03,South,169,0.0,0.0,95,0.00,,---,0.00,VWS V14.01,2013-07-04 09:21:00,
2013-07-04 05:26:00,74.6,73.1,30.03,South,169,0.0,0.0,95,0.00,,---,0.00,VWS V14.01,2013-07-04 09:26:00,
2013-07-04 05:30:00,74.6,73.1,30.04,SE,135,0.0,0.0,95,0.00,,---,0.00,VWS V14.01,2013-07-04 09:30:00,
2013-07-04 05:31:00,74.6,73.1,30.04,South,169,0.0,0.0,95,0.00,,---,0.00,VWS V14.01,2013-07-04 09:31:00,
2013-07-04 05:36:00,74.6,73.1,30.04,South,169,0.0,0.0,95,0.00,,---,0.00,VWS V14.01,2013-07-04 09:36:00,
2013-07-04 05:41:00,74.4,72.9,30.04,South,169,0.0,0.0,95,0.00,,---,0.00,VWS V14.01,2013-07-04 09:41:00,
2013-07-04 05:46:00,74.4,72.9,30.03,SSE,167,0.0,0.0,95,0.00,,---,0.00,VWS V14.01,2013-07-04 09:46:00,
2013-07-04 05:51:00,74.4,72.9,30.03,SSE,167,0.0,0.0,95,0.00,,---,0.00,VWS V14.01,2013-07-04 09:51:00,
2013-07-04 05:56:00,74.4,73.2,30.03,SSE,167,0.0,0.0,96,0.00,,---,0.00,VWS V14.01,2013-07-04 09:56:00,
2013-07-04 06:00:00,74.4,73.2,30.03,SE,135,0.0,0.0,96,0.00,,---,0.00,VWS V14.01,2013-07-04 10:00:00,
2013-07-04 06:01:00,74.4,73.2,30.03,SSE,167,0.0,0.0,96,0.00,,---,0.00,VWS V14.01,2013-07-04 10:01:00,
2013-07-04 06:06:00,74.4,73.2,30.03,SSE,167,0.0,0.0,96,0.00,,---,0.00,VWS V14.01,2013-07-04 10:06:00,
2013-07-04 06:11:00,74.4,73.2,30.03,SSE,167,0.0,0.0,96,0.00,,---,0.00,VWS V14.01,2013-07-04 10:11:00,
2013-07-04 06:16:00,74.4,73.2,30.04,SW,216,0.0,0.0,96,0.00,,---,0.00,VWS V14.01,2013-07-04 10:16:00,
2013-07-04 06:21:00,74.4,73.2,30.04,SW,216,0.0,0.0,96,0.00,,---,0.00,VWS V14.01,2013-07-04 10:21:00,
2013-07-04 06:26:00,74.4,73.2,30.04,SW,216,0.0,0.0,96,0.00,,---,0.00,VWS V14.01,2013-07-04 10:26:00,
2013-07-04 06:30:00,74.4,73.2,30.04,SE,135,0.0,0.0,96,0.00,,---,0.00,VWS V14.01,2013-07-04 10:30:00,
2013-07-04 06:31:00,74.4,73.2,30.04,SW,216,0.0,0.0,96,0.00,,---,0.00,VWS V14.01,2013-07-04 10:31:00,
2013-07-04 06:36:00,74.4,73.2,30.04,SW,216,0.0,0.0,96,0.00,,---,0.00,VWS V14.01,2013-07-04 10:36:00,
2013-07-04 06:41:00,74.4,73.2,30.04,SSW,199,0.0,0.0,96,0.00,,---,0.00,VWS V14.01,2013-07-04 10:41:00,
2013-07-04 06:46:00,74.4,73.2,30.04,North,8,0.0,0.0,96,0.00,,---,0.00,VWS V14.01,2013-07-04 10:46:00,
2013-07-04 06:51:00,74.6,73.4,30.04,North,8,0.0,0.0,96,0.00,,---,0.00,VWS V14.01,2013-07-04 10:51:00,
2013-07-04 06:56:00,74.6,73.4,30.04,North,8,0.0,0.0,96,0.00,,---,0.00,VWS V14.01,2013-07-04 10:56:00,
2013-07-04 07:00:00,74.5,73.3,30.04,SE,135,0.0,0.0,96,0.00,,---,0.00,VWS V14.01,2013-07-04 11:00:00,
2013-07-04 07:01:00,74.6,73.4,30.04,North,8,0.0,0.0,96,0.00,,---,0.00,VWS V14.01,2013-07-04 11:01:00,
2013-07-04 07:06:00,74.6,73.4,30.04,North,8,0.0,0.0,96,0.00,,---,0.00,VWS V14.01,2013-07-04 11:06:00,
2013-07-04 07:11:00,74.7,73.8,30.04,North,8,0.0,0.0,97,0.00,,---,0.00,VWS V14.01,2013-07-04 11:11:00,
2013-07-04 07:16:00,74.9,74.0,30.04,North,8,0.0,0.0,97,0.00,,---,0.00,VWS V14.01,2013-07-04 11:16:00,
2013-07-04 07:21:00,75.1,74.2,30.04,North,8,0.0,0.0,97,0.00,,---,0.00,VWS V14.01,2013-07-04 11:21:00,
2013-07-04 07:26:00,75.3,74.1,30.04,North,8,0.0,0.0,96,0.00,,---,0.00,VWS V14.01,2013-07-04 11:26:00,
2013-07-04 07:30:00,74.9,73.7,30.05,SE,135,0.0,0.0,96,0.00,,---,0.00,VWS V14.01,2013-07-04 11:30:00,
2013-07-04 07:31:00,75.3,74.1,30.05,North,8,0.0,0.0,96,0.00,,---,0.00,VWS V14.01,2013-07-04 11:31:00,
2013-07-04 07:36:00,75.6,74.4,30.05,North,11,0.0,0.0,96,0.00,,---,0.00,VWS V14.01,2013-07-04 11:36:00,
2013-07-04 07:41:00,75.8,74.3,30.05,North,11,0.0,0.0,95,0.00,,---,0.00,VWS V14.01,2013-07-04 11:41:00,
2013-07-04 07:46:00,76.0,74.5,30.05,ESE,121,0.0,0.0,95,0.00,,---,0.00,VWS V14.01,2013-07-04 11:46:00,
2013-07-04 07:51:00,76.5,75.0,30.05,ESE,121,0.0,0.0,95,0.00,,---,0.00,VWS V14.01,2013-07-04 11:51:00,
2013-07-04 07:56:00,76.7,74.5,30.05,ESE,120,0.0,0.0,93,0.00,,---,0.00,VWS V14.01,2013-07-04 11:56:00,
2013-07-04 08:00:00,76.3,74.1,30.05,SSE,158,0.0,1.0,93,0.00,,---,0.00,VWS V14.01,2013-07-04 12:00:00,
2013-07-04 08:01:00,76.8,74.6,30.05,South,181,0.0,0.0,93,0.00,,---,0.00,VWS V14.01,2013-07-04 12:01:00,
2013-07-04 08:06:00,77.4,74.6,30.05,ESE,119,0.0,0.0,91,0.00,,---,0.00,VWS V14.01,2013-07-04 12:06:00,
2013-07-04 08:11:00,77.6,74.8,30.05,SE,140,0.0,2.0,91,0.00,,---,0.00,VWS V14.01,2013-07-04 12:11:00,
2013-07-04 08:16:00,77.9,75.1,30.05,SE,143,0.0,2.0,91,0.00,,---,0.00,VWS V14.01,2013-07-04 12:16:00,
2013-07-04 08:21:00,77.9,74.7,30.05,SE,138,0.0,2.0,90,0.00,,---,0.00,VWS V14.01,2013-07-04 12:21:00,
2013-07-04 08:26:00,78.5,75.3,30.05,ESE,123,0.0,2.0,90,0.00,,---,0.00,VWS V14.01,2013-07-04 12:26:00,
2013-07-04 08:30:00,78.0,74.2,30.06,SE,135,0.0,2.0,88,0.00,,---,0.00,VWS V14.01,2013-07-04 12:30:00,
2013-07-04 08:31:00,78.8,74.9,30.06,WSW,239,0.0,0.0,88,0.00,,---,0.00,VWS V14.01,2013-07-04 12:31:00,
2013-07-04 08:36:00,79.0,74.8,30.06,SE,137,0.0,0.0,87,0.00,,---,0.00,VWS V14.01,2013-07-04 12:36:00,
2013-07-04 08:41:00,79.6,75.1,30.06,East,95,0.0,0.0,86,0.00,,---,0.00,VWS V14.01,2013-07-04 12:41:00,
2013-07-04 08:46:00,79.8,75.2,30.06,SE,145,2.0,6.0,86,0.00,,---,0.00,VWS V14.01,2013-07-04 12:46:00,
2013-07-04 08:51:00,79.8,75.2,30.06,SE,131,0.0,6.0,86,0.00,,---,0.00,VWS V14.01,2013-07-04 12:51:00,
2013-07-04 08:56:00,80.1,75.2,30.06,South,181,0.0,6.0,85,0.00,,---,0.00,VWS V14.01,2013-07-04 12:56:00,
2013-07-04 09:00:00,79.7,74.8,30.06,SSE,158,0.0,6.0,85,0.00,,---,0.00,VWS V14.01,2013-07-04 13:00:00,
2013-07-04 09:01:00,79.9,75.0,30.06,South,178,0.0,0.0,85,0.00,,---,0.00,VWS V14.01,2013-07-04 13:01:00,
2013-07-04 09:06:00,80.3,75.4,30.06,SE,133,0.0,0.0,85,0.00,,---,0.00,VWS V14.01,2013-07-04 13:06:00,
2013-07-04 09:11:00,80.5,74.9,30.06,ESE,109,0.0,5.0,83,0.00,,---,0.00,VWS V14.01,2013-07-04 13:11:00,
2013-07-04 09:16:00,80.9,75.3,30.06,SE,137,1.0,8.0,83,0.00,,---,0.00,VWS V14.01,2013-07-04 13:16:00,
2013-07-04 09:21:00,81.1,75.1,30.06,SE,140,1.0,8.0,82,0.00,,---,0.00,VWS V14.01,2013-07-04 13:21:00,
2013-07-04 09:26:00,81.4,75.0,30.06,South,182,0.0,8.0,81,0.00,,---,0.00,VWS V14.01,2013-07-04 13:26:00,
2013-07-04 09:30:00,80.9,74.5,30.06,SE,135,1.0,8.0,81,0.00,,---,0.00,VWS V14.01,2013-07-04 13:30:00,
2013-07-04 09:31:00,81.6,75.2,30.06,SSE,160,0.0,0.0,81,0.00,,---,0.00,VWS V14.01,2013-07-04 13:31:00,
2013-07-04 09:36:00,82.0,75.2,30.06,SW,217,0.0,3.0,80,0.00,,---,0.00,VWS V14.01,2013-07-04 13:36:00,
2013-07-04 09:41:00,81.8,74.7,30.06,SSE,154,0.0,3.0,79,0.00,,---,0.00,VWS V14.01,2013-07-04 13:41:00,
2013-07-04 09:46:00,81.8,74.7,30.07,SSE,165,2.0,6.0,79,0.00,,---,0.00,VWS V14.01,2013-07-04 13:46:00,
2013-07-04 09:51:00,82.0,74.8,30.07,SSE,160,0.0,6.0,79,0.00,,---,0.00,VWS V14.01,2013-07-04 13:51:00,
2013-07-04 09:56:00,82.0,74.8,30.07,SSE,162,0.0,6.0,79,0.00,,---,0.00,VWS V14.01,2013-07-04 13:56:00,
2013-07-04 10:00:00,81.9,74.8,30.07,SSE,158,0.0,6.0,79,0.00,,---,0.00,VWS V14.01,2013-07-04 14:00:00,
2013-07-04 10:01:00,82.2,75.0,30.07,SSW,213,0.0,0.0,79,0.00,,---,0.00,VWS V14.01,2013-07-04 14:01:00,
2013-07-04 10:06:00,82.6,75.1,30.07,SE,144,0.0,5.0,78,0.00,,---,0.00,VWS V14.01,2013-07-04 14:06:00,
2013-07-04 10:11:00,83.2,74.8,30.07,South,175,0.0,5.0,76,0.00,,---,0.00,VWS V14.01,2013-07-04 14:11:00,
2013-07-04 10:16:00,83.2,74.8,30.07,SSE,152,0.0,5.0,76,0.00,,---,0.00,VWS V14.01,2013-07-04 14:16:00,
2013-07-04 10:21:00,83.8,74.6,30.07,NE,56,0.0,5.0,74,0.00,,---,0.00,VWS V14.01,2013-07-04 14:21:00,
2013-07-04 10:26:00,83.6,73.6,30.07,NE,34,0.0,7.0,72,0.00,,---,0.00,VWS V14.01,2013-07-04 14:26:00,
2013-07-04 10:30:00,83.2,73.2,30.07,SSE,158,1.0,10.0,72,0.00,,---,0.00,VWS V14.01,2013-07-04 14:30:00,
2013-07-04 10:31:00,83.4,73.4,30.07,WSW,250,0.0,8.0,72,0.00,,---,0.00,VWS V14.01,2013-07-04 14:31:00,
2013-07-04 10:36:00,83.6,74.4,30.07,SSE,158,0.0,8.0,74,0.00,,---,0.00,VWS V14.01,2013-07-04 14:36:00,
2013-07-04 10:41:00,83.6,74.4,30.07,South,189,1.0,8.0,74,0.00,,---,0.00,VWS V14.01,2013-07-04 14:41:00,
2013-07-04 10:46:00,83.6,74.0,30.07,SSE,162,0.0,8.0,73,0.00,,---,0.00,VWS V14.01,2013-07-04 14:46:00,
2013-07-04 10:51:00,84.0,74.4,30.07,SSE,154,0.0,8.0,73,0.00,,---,0.00,VWS V14.01,2013-07-04 14:51:00,
2013-07-04 10:56:00,84.1,74.5,30.07,SSW,212,5.0,8.0,73,0.00,,---,0.00,VWS V14.01,2013-07-04 14:56:00,
2013-07-04 11:00:00,83.8,74.2,30.07,SSE,158,1.0,8.0,73,0.00,,---,0.00,VWS V14.01,2013-07-04 15:00:00,
2013-07-04 11:01:00,84.0,74.8,30.07,South,171,0.0,1.0,74,0.00,,---,0.00,VWS V14.01,2013-07-04 15:01:00,
2013-07-04 11:06:00,84.1,75.3,30.07,SSE,158,0.0,7.0,75,0.00,,---,0.00,VWS V14.01,2013-07-04 15:06:00,
2013-07-04 11:11:00,84.5,75.3,30.07,SSE,155,2.0,7.0,74,0.00,,---,0.00,VWS V14.01,2013-07-04 15:11:00,
2013-07-04 11:16:00,84.9,75.7,30.07,ESE,112,0.0,7.0,74,0.00,,---,0.00,VWS V14.01,2013-07-04 15:16:00,
2013-07-04 11:21:00,85.5,76.3,30.07,SSE,147,0.0,7.0,74,0.00,,---,0.00,VWS V14.01,2013-07-04 15:21:00,
2013-07-04 11:26:00,85.5,75.9,30.07,South,182,0.0,7.0,73,0.00,,---,0.00,VWS V14.01,2013-07-04 15:26:00,
2013-07-04 11:30:00,84.9,75.7,30.08,South,180,1.0,7.0,74,0.00,,---,0.00,VWS V14.01,2013-07-04 15:30:00,
2013-07-04 11:31:00,85.7,76.5,30.08,South,171,0.0,0.0,74,0.00,,---,0.00,VWS V14.01,2013-07-04 15:31:00,
2013-07-04 11:36:00,85.3,76.1,30.08,SSW,199,0.0,7.0,74,0.00,,---,0.00,VWS V14.01,2013-07-04 15:36:00,
2013-07-04 11:41:00,85.3,76.1,30.08,SSE,152,0.0,7.0,74,0.00,,---,0.00,VWS V14.01,2013-07-04 15:41:00,
2013-07-04 11:46:00,85.3,76.1,30.08,SSW,202,0.0,7.0,74,0.00,,---,0.00,VWS V14.01,2013-07-04 15:46:00,
2013-07-04 11:51:00,85.5,76.7,30.08,South,182,0.0,8.0,75,0.00,,---,0.00,VWS V14.01,2013-07-04 15:51:00,
2013-07-04 11:56:00,85.7,76.1,30.08,NW,319,5.0,8.0,73,0.00,,---,0.00,VWS V14.01,2013-07-04 15:56:00,
2013-07-04 12:00:00,85.5,76.3,30.08,SE,135,1.0,13.0,74,0.00,,---,0.00,VWS V14.01,2013-07-04 16:00:00,
2013-07-04 12:01:00,85.7,76.5,30.08,SE,137,0.0,0.0,74,0.00,,---,0.00,VWS V14.01,2013-07-04 16:01:00,
2013-07-04 12:06:00,85.5,75.9,30.08,SE,127,0.0,7.0,73,0.00,,---,0.00,VWS V14.01,2013-07-04 16:06:00,
2013-07-04 12:11:00,84.9,75.3,30.08,West,275,0.0,7.0,73,0.00,,---,0.00,VWS V14.01,2013-07-04 16:11:00,
2013-07-04 12:16:00,85.5,75.9,30.07,SSE,164,0.0,7.0,73,0.00,,---,0.00,VWS V14.01,2013-07-04 16:16:00,
2013-07-04 12:21:00,85.9,76.2,30.07,SSW,192,0.0,7.0,73,0.00,,---,0.00,VWS V14.01,2013-07-04 16:21:00,
2013-07-04 12:26:00,85.7,76.1,30.07,SSE,154,2.0,7.0,73,0.00,,---,0.00,VWS V14.01,2013-07-04 16:26:00,
2013-07-04 12:30:00,85.6,76.8,30.07,SSE,158,1.0,7.0,75,0.00,,---,0.00,VWS V14.01,2013-07-04 16:30:00,
2013-07-04 12:31:00,85.9,77.1,30.07,South,182,0.0,0.0,75,0.00,,---,0.00,VWS V14.01,2013-07-04 16:31:00,
2013-07-04 12:36:00,86.1,77.2,30.07,South,179,8.0,8.0,75,0.00,,---,0.00,VWS V14.01,2013-07-04 16:36:00,
2013-07-04 12:41:00,86.1,77.2,30.07,South,178,5.0,8.0,75,0.00,,---,0.00,VWS V14.01,2013-07-04 16:41:00,
2013-07-04 12:46:00,86.1,76.4,30.07,SE,128,0.0,8.0,73,0.00,,---,0.00,VWS V14.01,2013-07-04 16:46:00,
2013-07-04 12:51:00,86.3,75.8,30.07,SSE,147,0.0,8.0,71,0.00,,---,0.00,VWS V14.01,2013-07-04 16:51:00,
2013-07-04 12:56:00,86.7,76.2,30.07,North,359,4.0,8.0,71,0.00,,---,0.00,VWS V14.01,2013-07-04 16:56:00,
2013-07-04 13:00:00,86.2,75.7,30.06,SSE,158,2.0,8.0,71,0.00,,---,0.00,VWS V14.01,2013-07-04 17:00:00,
2013-07-04 13:01:00,85.9,75.8,30.06,South,179,0.0,5.0,72,0.00,,---,0.00,VWS V14.01,2013-07-04 17:01:00,
2013-07-04 13:06:00,85.9,75.8,30.06,SE,133,2.0,5.0,72,0.00,,---,0.00,VWS V14.01,2013-07-04 17:06:00,
2013-07-04 13:11:00,85.5,76.3,30.06,ESE,110,0.0,7.0,74,0.00,,---,0.00,VWS V14.01,2013-07-04 17:11:00,
2013-07-04 13:16:00,86.3,76.6,30.06,South,176,0.0,7.0,73,0.00,,---,0.00,VWS V14.01,2013-07-04 17:16:00,
2013-07-04 13:21:00,86.7,77.4,30.06,SE,130,0.0,7.0,74,0.00,,---,0.00,VWS V14.01,2013-07-04 17:21:00,
2013-07-04 13:26:00,87.0,77.3,30.06,North,349,0.0,7.0,73,0.00,,---,0.00,VWS V14.01,2013-07-04 17:26:00,
2013-07-04 13:30:00,86.1,76.4,30.06,SE,135,0.0,7.0,73,0.00,,---,0.00,VWS V14.01,2013-07-04 17:30:00,
2013-07-04 13:31:00,86.5,76.8,30.06,SE,134,6.0,6.0,73,0.00,,---,0.00,VWS V14.01,2013-07-04 17:31:00,
2013-07-04 13:36:00,86.5,76.4,30.06,SSE,154,0.0,7.0,72,0.00,,---,0.00,VWS V14.01,2013-07-04 17:36:00,
2013-07-04 13:41:00,86.5,77.2,30.06,ESE,114,0.0,7.0,74,0.00,,---,0.00,VWS V14.01,2013-07-04 17:41:00,
2013-07-04 13:46:00,86.1,76.8,30.06,WSW,241,0.0,10.0,74,0.00,,---,0.00,VWS V14.01,2013-07-04 17:46:00,
2013-07-04 13:51:00,86.3,76.6,30.06,SSE,164,0.0,10.0,73,0.00,,---,0.00,VWS V14.01,2013-07-04 17:51:00,
2013-07-04 13:56:00,85.5,75.9,30.06,SW,217,0.0,11.0,73,0.00,,---,0.00,VWS V14.01,2013-07-04 17:56:00,
2013-07-04 14:00:00,86.2,76.5,30.05,SSE,158,2.0,11.0,73,0.00,,---,0.00,VWS V14.01,2013-07-04 18:00:00,
2013-07-04 14:01:00,85.5,76.3,30.05,SE,136,0.0,8.0,74,0.00,,---,0.00,VWS V14.01,2013-07-04 18:01:00,
2013-07-04 14:06:00,85.5,76.3,30.05,ESE,109,2.0,8.0,74,0.00,,---,0.00,VWS V14.01,2013-07-04 18:06:00,
2013-07-04 14:11:00,85.5,76.7,30.05,ESE,120,0.0,10.0,75,0.00,,---,0.00,VWS V14.01,2013-07-04 18:11:00,
2013-07-04 14:16:00,85.7,76.9,30.05,SE,128,0.0,10.0,75,0.00,,---,0.00,VWS V14.01,2013-07-04 18:16:00,
2013-07-04 14:21:00,85.9,77.1,30.05,West,272,1.0,10.0,75,0.00,,---,0.00,VWS V14.01,2013-07-04 18:21:00,
2013-07-04 14:26:00,85.7,76.9,30.05,ESE,121,0.0,10.0,75,0.00,,---,0.00,VWS V14.01,2013-07-04 18:26:00,
2013-07-04 14:30:00,85.6,76.8,30.04,SE,135,1.0,10.0,75,0.00,,---,0.00,VWS V14.01,2013-07-04 18:30:00,
2013-07-04 14:31:00,85.5,76.7,30.04,SW,216,0.0,0.0,75,0.00,,---,0.00,VWS V14.01,2013-07-04 18:31:00,
2013-07-04 14:36:00,85.3,76.5,30.04,SSE,165,0.0,4.0,75,0.00,,---,0.00,VWS V14.01,2013-07-04 18:36:00,
2013-07-04 14:41:00,85.1,76.3,30.04,SSE,152,0.0,4.0,75,0.00,,---,0.00,VWS V14.01,2013-07-04 18:41:00,
2013-07-04 14:46:00,84.7,75.9,30.04,SSE,168,0.0,4.0,75,0.00,,---,0.00,VWS V14.01,2013-07-04 18:46:00,
2013-07-04 14:51:00,84.5,76.1,30.04,SE,127,0.0,5.0,76,0.00,,---,0.00,VWS V14.01,2013-07-04 18:51:00,
2013-07-04 14:56:00,85.1,76.3,30.04,SSE,152,5.0,7.0,75,0.00,,---,0.00,VWS V14.01,2013-07-04 18:56:00,
2013-07-04 15:00:00,85.0,75.8,30.02,SSE,158,1.0,10.0,74,0.00,,---,0.00,VWS V14.01,2013-07-04 19:00:00,
2013-07-04 15:01:00,85.5,76.3,30.02,South,169,6.0,11.0,74,0.00,,---,0.00,VWS V14.01,2013-07-04 19:01:00,
2013-07-04 15:06:00,85.7,76.5,30.02,SE,145,0.0,11.0,74,0.00,,---,0.00,VWS V14.01,2013-07-04 19:06:00,
2013-07-04 15:11:00,85.7,76.5,30.02,SE,128,0.0,11.0,74,0.00,,---,0.00,VWS V14.01,2013-07-04 19:11:00,
2013-07-04 15:16:00,86.5,77.6,30.02,SE,140,0.0,11.0,75,0.00,,---,0.00,VWS V14.01,2013-07-04 19:16:00,
2013-07-04 15:21:00,86.5,76.4,30.02,SSW,193,0.0,12.0,72,0.00,,---,0.00,VWS V14.01,2013-07-04 19:21:00,
2013-07-04 15:26:00,86.1,76.0,30.02,SSE,157,0.0,12.0,72,0.00,,---,0.00,VWS V14.01,2013-07-04 19:26:00,
2013-07-04 15:30:00,85.9,76.7,30.02,SSE,158,2.0,12.0,74,0.00,,---,0.00,VWS V14.01,2013-07-04 19:30:00,
2013-07-04 15:31:00,85.9,75.8,30.02,SSE,168,0.0,8.0,72,0.00,,---,0.00,VWS V14.01,2013-07-04 19:31:00,
2013-07-04 15:36:00,86.1,76.4,30.02,ENE,61,0.0,8.0,73,0.00,,---,0.00,VWS V14.01,2013-07-04 19:36:00,
2013-07-04 15:41:00,85.7,76.1,30.02,SE,144,0.0,8.0,73,0.00,,---,0.00,VWS V14.01,2013-07-04 19:41:00,
2013-07-04 15:46:00,85.7,76.5,30.03,North,0,0.0,8.0,74,0.00,,---,0.00,VWS V14.01,2013-07-04 19:46:00,
2013-07-04 15:51:00,85.5,75.9,30.03,SSE,162,0.0,8.0,73,0.00,,---,0.00,VWS V14.01,2013-07-04 19:51:00,
2013-07-04 15:56:00,84.9,75.3,30.03,SE,136,0.0,8.0,73,0.00,,---,0.00,VWS V14.01,2013-07-04 19:56:00,
2013-07-04 16:00:00,85.6,76.4,30.03,SSE,158,1.0,14.0,74,0.00,,---,0.00,VWS V14.01,2013-07-04 20:00:00,
2013-07-04 16:01:00,84.1,74.9,30.03,ESE,106,0.0,0.0,74,0.00,,---,0.00,VWS V14.01,2013-07-04 20:01:00,
2013-07-04 16:06:00,83.6,75.2,30.03,SE,128,5.0,5.0,76,0.00,,---,0.00,VWS V14.01,2013-07-04 20:06:00,
2013-07-04 16:11:00,83.4,75.1,30.03,SSE,161,0.0,10.0,76,0.00,,---,0.00,VWS V14.01,2013-07-04 20:11:00,
2013-07-04 16:16:00,83.2,75.6,30.02,NNE,23,1.0,10.0,78,0.00,,---,0.00,VWS V14.01,2013-07-04 20:16:00,
2013-07-04 16:21:00,83.2,76.0,30.02,SSE,152,0.0,10.0,79,0.00,,---,0.00,VWS V14.01,2013-07-04 20:21:00,
2013-07-04 16:26:00,83.2,75.6,30.02,SSE,155,0.0,10.0,78,0.00,,---,0.00,VWS V14.01,2013-07-04 20:26:00,
2013-07-04 16:30:00,83.4,75.8,30.03,SSE,158,1.0,10.0,78,0.00,,---,0.00,VWS V14.01,2013-07-04 20:30:00,
2013-07-04 16:31:00,82.8,75.6,30.03,East,85,1.0,6.0,79,0.00,,---,0.00,VWS V14.01,2013-07-04 20:31:00,
2013-07-04 16:36:00,82.8,75.6,30.03,SE,127,2.0,6.0,79,0.00,,---,0.00,VWS V14.01,2013-07-04 20:36:00,
2013-07-04 16:41:00,82.8,76.0,30.03,SE,140,0.0,6.0,80,0.00,,---,0.00,VWS V14.01,2013-07-04 20:41:00,
2013-07-04 16:46:00,82.8,75.2,30.03,ESE,114,0.0,6.0,78,0.00,,---,0.00,VWS V14.01,2013-07-04 20:46:00,
2013-07-04 16:51:00,82.6,75.4,30.03,SSE,160,0.0,6.0,79,0.00,,---,0.00,VWS V14.01,2013-07-04 20:51:00,
2013-07-04 16:56:00,82.6,75.1,30.03,South,182,0.0,6.0,78,0.00,,---,0.00,VWS V14.01,2013-07-04 20:56:00,
2013-07-04 17:00:00,82.7,75.2,30.03,SE,135,1.0,6.0,78,0.00,,---,0.00,VWS V14.01,2013-07-04 21:00:00,
2013-07-04 17:01:00,82.6,75.4,30.03,SE,126,3.0,3.0,79,0.00,,---,0.00,VWS V14.01,2013-07-04 21:01:00,
2013-07-04 17:06:00,82.8,75.6,30.03,SE,145,0.0,7.0,79,0.00,,---,0.00,VWS V14.01,2013-07-04 21:06:00,
2013-07-04 17:11:00,82.4,75.2,30.03,ESE,116,0.0,7.0,79,0.00,,---,0.00,VWS V14.01,2013-07-04 21:11:00,
2013-07-04 17:16:00,82.4,75.2,30.02,SE,128,5.0,8.0,79,0.00,,---,0.00,VWS V14.01,2013-07-04 21:16:00,
2013-07-04 17:21:00,82.4,76.0,30.02,SSE,164,1.0,8.0,81,0.00,,---,0.00,VWS V14.01,2013-07-04 21:21:00,
2013-07-04 17:26:00,82.4,76.0,30.02,SSE,150,0.0,8.0,81,0.00,,---,0.00,VWS V14.01,2013-07-04 21:26:00,
2013-07-04 17:30:00,82.5,75.7,30.02,SSE,158,1.0,8.0,80,0.00,,---,0.00,VWS V14.01,2013-07-04 21:30:00,
2013-07-04 17:31:00,82.2,75.4,30.02,SE,126,0.0,0.0,80,0.00,,---,0.00,VWS V14.01,2013-07-04 21:31:00,
2013-07-04 17:36:00,82.4,76.0,30.02,SE,133,0.0,0.0,81,0.00,,---,0.00,VWS V14.01,2013-07-04 21:36:00,
2013-07-04 17:41:00,82.4,76.0,30.02,SE,131,0.0,0.0,81,0.00,,---,0.00,VWS V14.01,2013-07-04 21:41:00,
2013-07-04 17:46:00,82.0,75.6,30.02,ESE,121,0.0,7.0,81,0.00,,---,0.00,VWS V14.01,2013-07-04 21:46:00,
2013-07-04 17:51:00,82.0,76.0,30.02,SE,130,0.0,7.0,82,0.00,,---,0.00,VWS V14.01,2013-07-04 21:51:00,
2013-07-04 17:56:00,81.8,75.8,30.02,SW,233,0.0,7.0,82,0.00,,---,0.00,VWS V14.01,2013-07-04 21:56:00,
2013-07-04 18:00:00,82.1,76.1,30.03,SSE,158,0.0,7.0,82,0.00,,---,0.00,VWS V14.01,2013-07-04 22:00:00,
2013-07-04 18:01:00,81.8,75.4,30.03,South,172,3.0,6.0,81,0.00,,---,0.00,VWS V14.01,2013-07-04 22:01:00,
2013-07-04 18:06:00,82.0,76.0,30.03,SSE,162,0.0,7.0,82,0.00,,---,0.00,VWS V14.01,2013-07-04 22:06:00,
2013-07-04 18:11:00,82.4,76.0,30.03,East,100,0.0,7.0,81,0.00,,---,0.00,VWS V14.01,2013-07-04 22:11:00,
2013-07-04 18:16:00,82.6,76.2,30.03,SSE,157,0.0,7.0,81,0.00,,---,0.00,VWS V14.01,2013-07-04 22:16:00,
2013-07-04 18:21:00,82.6,76.2,30.03,SE,131,0.0,7.0,81,0.00,,---,0.00,VWS V14.01,2013-07-04 22:21:00,
2013-07-04 18:26:00,82.4,75.6,30.03,SSE,148,5.0,7.0,80,0.00,,---,0.00,VWS V14.01,2013-07-04 22:26:00,
2013-07-04 18:30:00,82.2,75.4,30.03,SSE,158,1.0,7.0,80,0.00,,---,0.00,VWS V14.01,2013-07-04 22:30:00,
2013-07-04 18:31:00,82.2,75.4,30.03,SE,133,6.0,6.0,80,0.00,,---,0.00,VWS V14.01,2013-07-04 22:31:00,
2013-07-04 18:36:00,81.6,74.8,30.03,SSE,167,0.0,6.0,80,0.00,,---,0.00,VWS V14.01,2013-07-04 22:36:00,
2013-07-04 18:41:00,81.4,75.4,30.03,SSE,162,0.0,6.0,82,0.00,,---,0.00,VWS V14.01,2013-07-04 22:41:00,
2013-07-04 18:46:00,81.2,75.6,30.03,SSE,161,0.0,6.0,83,0.00,,---,0.00,VWS V14.01,2013-07-04 22:46:00,
2013-07-04 18:51:00,81.1,75.4,30.03,SSE,164,0.0,6.0,83,0.00,,---,0.00,VWS V14.01,2013-07-04 22:51:00,
2013-07-04 18:56:00,80.7,75.4,30.03,SSE,147,0.0,6.0,84,0.00,,---,0.00,VWS V14.01,2013-07-04 22:56:00,
2013-07-04 19:00:00,81.1,75.8,30.03,SE,135,0.0,5.0,84,0.00,,---,0.00,VWS V14.01,2013-07-04 23:00:00,
2013-07-04 19:01:00,80.5,75.2,30.03,SE,145,0.0,5.0,84,0.00,,---,0.00,VWS V14.01,2013-07-04 23:01:00,
2013-07-04 19:06:00,80.3,75.7,30.03,SSE,165,0.0,5.0,86,0.00,,---,0.00,VWS V14.01,2013-07-04 23:06:00,
2013-07-04 19:11:00,80.1,75.5,30.03,SE,145,0.0,5.0,86,0.00,,---,0.00,VWS V14.01,2013-07-04 23:11:00,
2013-07-04 19:16:00,79.9,75.3,30.03,SE,137,0.0,5.0,86,0.00,,---,0.00,VWS V14.01,2013-07-04 23:16:00,
2013-07-04 19:21:00,79.8,75.2,30.03,SE,141,0.0,7.0,86,0.00,,---,0.00,VWS V14.01,2013-07-04 23:21:00,
2013-07-04 19:26:00,79.8,75.2,30.03,SE,137,2.0,7.0,86,0.00,,---,0.00,VWS V14.01,2013-07-04 23:26:00,
2013-07-04 19:30:00,80.0,75.4,30.05,SSE,158,0.0,8.0,86,0.00,,---,0.00,VWS V14.01,2013-07-04 23:30:00,
2013-07-04 19:31:00,79.8,75.2,30.05,SSE,155,3.0,3.0,86,0.00,,---,0.00,VWS V14.01,2013-07-04 23:31:00,
2013-07-04 19:36:00,79.8,75.2,30.05,South,169,0.0,3.0,86,0.00,,---,0.00,VWS V14.01,2013-07-04 23:36:00,
2013-07-04 19:41:00,79.8,75.2,30.05,SSE,157,0.0,7.0,86,0.00,,---,0.00,VWS V14.01,2013-07-04 23:41:00,
2013-07-04 19:46:00,79.8,75.2,30.05,SE,130,0.0,7.0,86,0.00,,---,0.00,VWS V14.01,2013-07-04 23:46:00,
2013-07-04 19:51:00,79.8,75.2,30.05,SSE,158,0.0,7.0,86,0.00,,---,0.00,VWS V14.01,2013-07-04 23:51:00,
2013-07-04 19:56:00,79.8,75.2,30.05,SE,136,0.0,7.0,86,0.00,,---,0.00,VWS V14.01,2013-07-04 23:56:00,
2013-07-04 20:00:00,79.8,75.2,30.06,SE,135,0.0,7.0,86,0.00,,---,0.00,VWS V14.01,2013-07-05 00:00:00,
2013-07-04 20:01:00,79.8,75.2,30.06,ESE,121,0.0,1.0,86,0.00,,---,0.00,VWS V14.01,2013-07-05 00:01:00,
2013-07-04 20:06:00,79.6,75.1,30.06,SSE,147,0.0,6.0,86,0.00,,---,0.00,VWS V14.01,2013-07-05 00:06:00,
2013-07-04 20:11:00,79.6,75.1,30.06,SE,127,0.0,6.0,86,0.00,,---,0.00,VWS V14.01,2013-07-05 00:11:00,
2013-07-04 20:16:00,79.6,75.1,30.07,SSE,155,0.0,6.0,86,0.00,,---,0.00,VWS V14.01,2013-07-05 00:16:00,
2013-07-04 20:21:00,79.6,75.1,30.07,SSE,152,0.0,6.0,86,0.00,,---,0.00,VWS V14.01,2013-07-05 00:21:00,
2013-07-04 20:26:00,79.6,75.1,30.07,South,174,0.0,6.0,86,0.00,,---,0.00,VWS V14.01,2013-07-05 00:26:00,
2013-07-04 20:30:00,79.6,75.1,30.07,South,180,0.0,6.0,86,0.00,,---,0.00,VWS V14.01,2013-07-05 00:30:00,
2013-07-04 20:31:00,79.6,75.1,30.07,ESE,117,0.0,0.0,86,0.00,,---,0.00,VWS V14.01,2013-07-05 00:31:00,
2013-07-04 20:36:00,79.6,75.1,30.07,ESE,117,0.0,0.0,86,0.00,,---,0.00,VWS V14.01,2013-07-05 00:36:00,
2013-07-04 20:41:00,79.6,75.1,30.07,SSE,167,0.0,0.0,86,0.00,,---,0.00,VWS V14.01,2013-07-05 00:41:00,
2013-07-04 20:46:00,79.6,75.1,30.08,SSE,154,0.0,0.0,86,0.00,,---,0.00,VWS V14.01,2013-07-05 00:46:00,
2013-07-04 20:51:00,79.6,75.1,30.08,SSE,164,0.0,3.0,86,0.00,,---,0.00,VWS V14.01,2013-07-05 00:51:00,
2013-07-04 20:56:00,79.4,74.8,30.08,SSE,164,0.0,3.0,86,0.00,,---,0.00,VWS V14.01,2013-07-05 00:56:00,
2013-07-04 21:00:00,79.5,74.9,30.08,SSE,158,0.0,3.0,86,0.00,,---,0.00,VWS V14.01,2013-07-05 01:00:00,
2013-07-04 21:01:00,79.4,74.8,30.08,SSE,165,0.0,1.0,86,0.00,,---,0.00,VWS V14.01,2013-07-05 01:01:00,
2013-07-04 21:06:00,79.2,75.0,30.08,SSE,162,0.0,1.0,87,0.00,,---,0.00,VWS V14.01,2013-07-05 01:06:00,
2013-07-04 21:11:00,79.2,75.0,30.08,SSE,164,0.0,1.0,87,0.00,,---,0.00,VWS V14.01,2013-07-05 01:11:00,
2013-07-04 21:16:00,79.2,75.0,30.07,SSE,164,0.0,1.0,87,0.00,,---,0.00,VWS V14.01,2013-07-05 01:16:00,
2013-07-04 21:21:00,79.0,74.8,30.07,SSE,168,0.0,1.0,87,0.00,,---,0.00,VWS V14.01,2013-07-05 01:21:00,
2013-07-04 21:26:00,79.0,74.8,30.07,South,179,0.0,1.0,87,0.00,,---,0.00,VWS V14.01,2013-07-05 01:26:00,
2013-07-04 21:30:00,79.2,75.3,30.08,SSE,158,0.0,1.0,88,0.00,,---,0.00,VWS V14.01,2013-07-05 01:30:00,
2013-07-04 21:31:00,79.0,75.2,30.08,South,174,0.0,0.0,88,0.00,,---,0.00,VWS V14.01,2013-07-05 01:31:00,
2013-07-04 21:36:00,78.8,74.9,30.08,South,174,0.0,0.0,88,0.00,,---,0.00,VWS V14.01,2013-07-05 01:36:00,
2013-07-04 21:41:00,78.8,74.9,30.08,South,181,0.0,0.0,88,0.00,,---,0.00,VWS V14.01,2013-07-05 01:41:00,
2013-07-04 21:46:00,78.8,74.9,30.08,South,169,0.0,0.0,88,0.00,,---,0.00,VWS V14.01,2013-07-05 01:46:00,
2013-07-04 21:51:00,78.8,74.9,30.08,SSE,165,0.0,2.0,88,0.00,,---,0.00,VWS V14.01,2013-07-05 01:51:00,
2013-07-04 21:56:00,78.8,74.9,30.08,SSE,165,0.0,2.0,88,0.00,,---,0.00,VWS V14.01,2013-07-05 01:56:00,
2013-07-04 22:00:00,78.8,74.9,30.08,SSE,158,0.0,2.0,88,0.00,,---,0.00,VWS V14.01,2013-07-05 02:00:00,
2013-07-04 22:01:00,78.6,74.8,30.08,SSE,165,0.0,0.0,88,0.00,,---,0.00,VWS V14.01,2013-07-05 02:01:00,
2013-07-04 22:06:00,77.7,72.8,30.08,WNW,289,0.0,1.0,85,0.00,,---,0.00,VWS V14.01,2013-07-05 02:06:00,
2013-07-04 22:11:00,77.4,72.5,30.08,WNW,289,0.0,1.0,85,0.00,,---,0.00,VWS V14.01,2013-07-05 02:11:00,
2013-07-04 22:16:00,76.8,72.3,30.08,WNW,289,0.0,1.0,86,0.00,,---,0.00,VWS V14.01,2013-07-05 02:16:00,
2013-07-04 22:21:00,76.7,72.2,30.08,WNW,289,0.0,1.0,86,0.00,,---,0.00,VWS V14.01,2013-07-05 02:21:00,
2013-07-04 22:26:00,76.5,72.3,30.08,WNW,289,0.0,1.0,87,0.00,,---,0.00,VWS V14.01,2013-07-05 02:26:00,
2013-07-04 22:30:00,77.2,73.0,30.08,WNW,292,0.0,1.0,87,0.00,,---,0.00,VWS V14.01,2013-07-05 02:30:00,
2013-07-04 22:31:00,76.3,72.2,30.08,WNW,289,0.0,0.0,87,0.00,,---,0.00,VWS V14.01,2013-07-05 02:31:00,
2013-07-04 22:36:00,76.3,72.5,30.08,WNW,289,0.0,0.0,88,0.00,,---,0.00,VWS V14.01,2013-07-05 02:36:00,
2013-07-04 22:41:00,76.0,72.2,30.08,WNW,289,0.0,0.0,88,0.00,,---,0.00,VWS V14.01,2013-07-05 02:41:00,
2013-07-04 22:46:00,75.8,72.3,30.09,WNW,289,0.0,0.0,89,0.00,,---,0.00,VWS V14.01,2013-07-05 02:46:00,
2013-07-04 22:51:00,75.8,72.3,30.09,WNW,289,0.0,0.0,89,0.00,,---,0.00,VWS V14.01,2013-07-05 02:51:00,
2013-07-04 22:56:00,75.6,72.5,30.09,WNW,289,0.0,0.0,90,0.00,,---,0.00,VWS V14.01,2013-07-05 02:56:00,
2013-07-04 23:00:00,76.0,72.9,30.09,WNW,292,0.0,0.0,90,0.00,,---,0.00,VWS V14.01,2013-07-05 03:00:00,
2013-07-04 23:01:00,75.6,72.5,30.09,WNW,289,0.0,0.0,90,0.00,,---,0.00,VWS V14.01,2013-07-05 03:01:00,
2013-07-04 23:06:00,75.4,72.3,30.09,WNW,289,0.0,0.0,90,0.00,,---,0.00,VWS V14.01,2013-07-05 03:06:00,
2013-07-04 23:11:00,75.4,72.3,30.09,WNW,289,0.0,0.0,90,0.00,,---,0.00,VWS V14.01,2013-07-05 03:11:00,
2013-07-04 23:16:00,75.4,72.3,30.09,WNW,289,0.0,0.0,90,0.00,,---,0.00,VWS V14.01,2013-07-05 03:16:00,
2013-07-04 23:21:00,75.3,72.5,30.09,WNW,289,0.0,0.0,91,0.00,,---,0.00,VWS V14.01,2013-07-05 03:21:00,
2013-07-04 23:26:00,75.3,72.5,30.09,WNW,289,0.0,0.0,91,0.00,,---,0.00,VWS V14.01,2013-07-05 03:26:00,
2013-07-04 23:30:00,75.4,72.6,30.08,WNW,292,0.0,0.0,91,0.00,,---,0.00,VWS V14.01,2013-07-05 03:30:00,
2013-07-04 23:31:00,75.1,72.3,30.08,WNW,289,0.0,0.0,91,0.00,,---,0.00,VWS V14.01,2013-07-05 03:31:00,
2013-07-04 23:36:00,75.1,72.3,30.08,WNW,289,0.0,0.0,91,0.00,,---,0.00,VWS V14.01,2013-07-05 03:36:00,
2013-07-04 23:41:00,75.1,72.3,30.08,WNW,289,0.0,0.0,91,0.00,,---,0.00,VWS V14.01,2013-07-05 03:41:00,
2013-07-04 23:46:00,74.9,72.1,30.08,WNW,289,0.0,0.0,91,0.00,,---,0.00,VWS V14.01,2013-07-05 03:46:00,
2013-07-04 23:51:00,74.9,72.4,30.08,WNW,289,0.0,0.0,92,0.00,,---,0.00,VWS V14.01,2013-07-05 03:51:00,
2013-07-04 23:56:00,74.9,72.4,30.08,WNW,289,0.0,0.0,92,0.00,,---,0.00,VWS V14.01,2013-07-05 03:56:00,